Time,TemperatureF,DewpointF,PressureIn,WindDirection,WindDirectionDegrees,WindSpeedMPH,WindSpeedGustMPH,Humidity,HourlyPrecipIn,Conditions,Clouds,dailyrainin,SolarRadiationWatts/m^2,SoftwareType,DateUTC
2013-08-28 00:02:00,76.9,66.4,29.84,South,189,5.0,5.0,70,0.00,,,0.00,0,Wunderground v.1.15,2013-08-28 05:02:00,
2013-08-28 00:08:00,76.6,66.1,29.84,SSW,203,5.0,6.0,70,0.00,,,0.00,0,Wunderground v.1.15,2013-08-28 05:08:00,
2013-08-28 00:14:00,76.6,66.1,29.84,SSW,209,5.0,8.0,70,0.00,,,0.00,0,Wunderground v.1.15,2013-08-28 05:14:00,
2013-08-28 00:20:00,76.8,66.3,29.84,South,182,6.0,6.0,70,0.00,,,0.00,0,Wunderground v.1.15,2013-08-28 05:20:00,
2013-08-28 00:26:00,76.5,66.0,29.84,South,184,5.0,7.0,70,0.00,,,0.00,0,Wunderground v.1.15,2013-08-28 05:26:00,
2013-08-28 00:32:00,76.3,65.8,29.84,SW,217,5.0,5.0,70,0.00,,,0.00,0,Wunderground v.1.15,2013-08-28 05:32:00,
2013-08-28 00:37:00,76.2,65.7,29.84,SSW,193,4.0,6.0,70,0.00,,,0.00,0,Wunderground v.1.15,2013-08-28 05:37:00,
2013-08-28 00:42:00,76.1,65.6,29.84,SSW,196,4.0,5.0,70,0.00,,,0.00,0,Wunderground v.1.15,2013-08-28 05:42:00,
2013-08-28 00:47:00,76.1,65.6,29.84,SSW,198,4.0,6.0,70,0.00,,,0.00,0,Wunderground v.1.15,2013-08-28 05:47:00,
2013-08-28 00:53:00,76.1,65.6,29.84,South,171,5.0,9.0,70,0.00,,,0.00,0,Wunderground v.1.15,2013-08-28 05:53:00,
2013-08-28 00:59:00,75.9,65.4,29.85,SW,230,5.0,9.0,70,0.00,,,0.00,0,Wunderground v.1.15,2013-08-28 05:59:00,
2013-08-28 01:05:00,75.8,65.3,29.85,SSW,200,5.0,8.0,70,0.00,,,0.00,0,Wunderground v.1.15,2013-08-28 06:05:00,
2013-08-28 01:11:00,75.7,65.2,29.85,South,185,5.0,8.0,70,0.00,,,0.00,0,Wunderground v.1.15,2013-08-28 06:11:00,
2013-08-28 01:17:00,75.7,65.2,29.85,South,191,5.0,8.0,70,0.00,,,0.00,0,Wunderground v.1.15,2013-08-28 06:17:00,
2013-08-28 01:23:00,75.5,65.0,29.85,SSW,195,5.0,6.0,70,0.00,,,0.00,0,Wunderground v.1.15,2013-08-28 06:23:00,
2013-08-28 01:29:00,75.3,65.2,29.85,SSW,205,5.0,7.0,71,0.00,,,0.00,0,Wunderground v.1.15,2013-08-28 06:29:00,
2013-08-28 01:34:00,75.3,64.8,29.85,SSE,158,6.0,8.0,70,0.00,,,0.00,0,Wunderground v.1.15,2013-08-28 06:34:00,
2013-08-28 01:39:00,75.3,64.8,29.85,SSW,210,6.0,9.0,70,0.00,,,0.00,0,Wunderground v.1.15,2013-08-28 06:39:00,
2013-08-28 01:44:00,75.1,65.1,29.85,South,180,5.0,8.0,71,0.00,,,0.00,0,Wunderground v.1.15,2013-08-28 06:44:00,
2013-08-28 01:49:00,74.9,64.9,29.85,South,184,5.0,11.0,71,0.00,,,0.00,0,Wunderground v.1.15,2013-08-28 06:49:00,
2013-08-28 01:55:00,74.9,64.9,29.85,SW,215,6.0,8.0,71,0.00,,,0.00,0,Wunderground v.1.15,2013-08-28 06:55:00,
2013-08-28 02:00:00,74.8,64.8,29.85,South,188,7.0,7.0,71,0.00,,,0.00,0,Wunderground v.1.15,2013-08-28 07:00:00,
2013-08-28 02:05:00,74.8,64.8,29.85,SW,218,6.0,7.0,71,0.00,,,0.00,0,Wunderground v.1.15,2013-08-28 07:05:00,
2013-08-28 02:10:00,74.8,64.8,29.85,SSW,192,6.0,6.0,71,0.00,,,0.00,0,Wunderground v.1.15,2013-08-28 07:10:00,
2013-08-28 02:15:00,74.8,64.8,29.85,South,173,6.0,7.0,71,0.00,,,0.00,0,Wunderground v.1.15,2013-08-28 07:15:00,
2013-08-28 02:21:00,74.6,64.6,29.85,South,179,6.0,6.0,71,0.00,,,0.00,0,Wunderground v.1.15,2013-08-28 07:21:00,
2013-08-28 02:27:00,74.3,64.7,29.85,SSW,197,6.0,7.0,72,0.00,,,0.00,0,Wunderground v.1.15,2013-08-28 07:27:00,
2013-08-28 02:32:00,74.3,64.7,29.85,SW,218,6.0,6.0,72,0.00,,,0.00,0,Wunderground v.1.15,2013-08-28 07:32:00,
2013-08-28 02:37:00,74.2,64.6,29.85,South,173,6.0,8.0,72,0.00,,,0.00,0,Wunderground v.1.15,2013-08-28 07:37:00,
2013-08-28 02:42:00,74.2,64.6,29.85,SSW,202,5.0,8.0,72,0.00,,,0.00,0,Wunderground v.1.15,2013-08-28 07:42:00,
2013-08-28 02:47:00,74.1,64.9,29.85,South,191,5.0,8.0,73,0.00,,,0.00,0,Wunderground v.1.15,2013-08-28 07:47:00,
2013-08-28 02:53:00,74.0,64.8,29.85,SSW,202,5.0,7.0,73,0.00,,,0.00,0,Wunderground v.1.15,2013-08-28 07:53:00,
2013-08-28 02:58:00,73.8,64.6,29.85,South,173,5.0,7.0,73,0.00,,,0.00,0,Wunderground v.1.15,2013-08-28 07:58:00,
2013-08-28 03:04:00,73.7,64.9,29.85,SW,231,5.0,7.0,74,0.00,,,0.00,0,Wunderground v.1.15,2013-08-28 08:04:00,
2013-08-28 03:09:00,73.5,64.7,29.85,SSW,202,5.0,9.0,74,0.00,,,0.00,0,Wunderground v.1.15,2013-08-28 08:09:00,
2013-08-28 03:14:00,73.3,64.9,29.85,SSW,207,5.0,9.0,75,0.00,,,0.00,0,Wunderground v.1.15,2013-08-28 08:14:00,
2013-08-28 03:19:00,73.1,64.7,29.85,SSW,194,5.0,9.0,75,0.00,,,0.00,0,Wunderground v.1.15,2013-08-28 08:19:00,
2013-08-28 03:24:00,72.9,64.9,29.85,SW,220,4.0,6.0,76,0.00,,,0.00,0,Wunderground v.1.15,2013-08-28 08:24:00,
2013-08-28 03:29:00,72.8,64.8,29.85,SSW,206,4.0,6.0,76,0.00,,,0.00,0,Wunderground v.1.15,2013-08-28 08:29:00,
2013-08-28 03:34:00,72.5,64.9,29.86,South,182,4.0,6.0,77,0.00,,,0.00,0,Wunderground v.1.15,2013-08-28 08:34:00,
2013-08-28 03:39:00,72.3,64.7,29.85,SSW,206,3.0,6.0,77,0.00,,,0.00,0,Wunderground v.1.15,2013-08-28 08:39:00,
2013-08-28 03:44:00,72.2,64.6,29.86,SSW,213,3.0,6.0,77,0.00,,,0.00,0,Wunderground v.1.15,2013-08-28 08:44:00,
2013-08-28 03:49:00,72.0,64.8,29.86,SSW,194,3.0,6.0,78,0.00,,,0.00,0,Wunderground v.1.15,2013-08-28 08:49:00,
2013-08-28 03:54:00,71.6,64.7,29.86,South,185,3.0,4.0,79,0.00,,,0.00,0,Wunderground v.1.15,2013-08-28 08:54:00,
2013-08-28 04:00:00,71.1,64.6,29.86,South,176,3.0,3.0,80,0.00,,,0.00,0,Wunderground v.1.15,2013-08-28 09:00:00,
2013-08-28 04:05:00,70.6,64.5,29.86,South,185,2.0,3.0,81,0.00,,,0.00,0,Wunderground v.1.15,2013-08-28 09:05:00,
2013-08-28 04:11:00,70.2,64.4,29.86,South,175,1.0,2.0,82,0.00,,,0.00,0,Wunderground v.1.15,2013-08-28 09:11:00,
2013-08-28 04:17:00,70.2,64.4,29.86,South,182,2.0,2.0,82,0.00,,,0.00,0,Wunderground v.1.15,2013-08-28 09:17:00,
2013-08-28 04:23:00,70.0,64.6,29.86,South,182,2.0,3.0,83,0.00,,,0.00,0,Wunderground v.1.15,2013-08-28 09:23:00,
2013-08-28 04:29:00,70.1,64.3,29.86,South,188,2.0,3.0,82,0.00,,,0.00,0,Wunderground v.1.15,2013-08-28 09:29:00,
2013-08-28 04:34:00,69.9,64.5,29.86,South,183,2.0,4.0,83,0.00,,,0.00,0,Wunderground v.1.15,2013-08-28 09:34:00,
2013-08-28 04:39:00,69.9,64.5,29.86,South,183,2.0,4.0,83,0.00,,,0.00,0,Wunderground v.1.15,2013-08-28 09:39:00,
2013-08-28 04:45:00,70.0,64.6,29.86,SW,214,2.0,3.0,83,0.00,,,0.00,0,Wunderground v.1.15,2013-08-28 09:45:00,
2013-08-28 04:51:00,70.1,64.7,29.86,South,185,2.0,2.0,83,0.00,,,0.00,0,Wunderground v.1.15,2013-08-28 09:51:00,
2013-08-28 04:57:00,70.0,64.6,29.86,South,190,2.0,3.0,83,0.00,,,0.00,0,Wunderground v.1.15,2013-08-28 09:57:00,
2013-08-28 05:02:00,69.4,64.7,29.87,South,184,2.0,2.0,85,0.00,,,0.00,0,Wunderground v.1.15,2013-08-28 10:02:00,
2013-08-28 05:07:00,68.8,64.4,29.87,South,180,1.0,2.0,86,0.00,,,0.00,0,Wunderground v.1.15,2013-08-28 10:07:00,
2013-08-28 05:12:00,67.9,63.9,29.87,SSE,156,2.0,2.0,87,0.00,,,0.00,0,Wunderground v.1.15,2013-08-28 10:12:00,
2013-08-28 05:17:00,67.5,63.8,29.87,SSE,155,2.0,2.0,88,0.00,,,0.00,0,Wunderground v.1.15,2013-08-28 10:17:00,
2013-08-28 05:23:00,67.2,63.5,29.87,South,174,2.0,2.0,88,0.00,,,0.00,0,Wunderground v.1.15,2013-08-28 10:23:00,
2013-08-28 05:28:00,66.8,63.5,29.87,SSE,165,1.0,4.0,89,0.00,,,0.00,0,Wunderground v.1.15,2013-08-28 10:28:00,
2013-08-28 05:33:00,66.7,63.7,29.87,SSE,165,1.0,1.0,90,0.00,,,0.00,0,Wunderground v.1.15,2013-08-28 10:33:00,
2013-08-28 05:38:00,66.5,63.5,29.88,SSE,165,1.0,1.0,90,0.00,,,0.00,0,Wunderground v.1.15,2013-08-28 10:38:00,
2013-08-28 05:43:00,66.4,63.4,29.88,South,184,1.0,1.0,90,0.00,,,0.00,0,Wunderground v.1.15,2013-08-28 10:43:00,
2013-08-28 05:49:00,66.4,63.7,29.88,South,179,1.0,2.0,91,0.00,,,0.00,0,Wunderground v.1.15,2013-08-28 10:49:00,
2013-08-28 05:55:00,66.8,63.8,29.88,South,181,2.0,2.0,90,0.00,,,0.00,0,Wunderground v.1.15,2013-08-28 10:55:00,
2013-08-28 06:01:00,66.8,63.5,29.88,SSW,194,2.0,2.0,89,0.00,,,0.00,0,Wunderground v.1.15,2013-08-28 11:01:00,
2013-08-28 06:06:00,67.0,63.6,29.88,SW,217,2.0,2.0,89,0.00,,,0.00,0,Wunderground v.1.15,2013-08-28 11:06:00,
2013-08-28 06:11:00,67.3,63.9,29.88,SW,215,2.0,3.0,89,0.00,,,0.00,0,Wunderground v.1.15,2013-08-28 11:11:00,
2013-08-28 06:16:00,67.9,64.2,29.88,SSW,194,2.0,3.0,88,0.00,,,0.00,0,Wunderground v.1.15,2013-08-28 11:16:00,
2013-08-28 06:21:00,68.4,64.4,29.88,SSW,198,3.0,4.0,87,0.00,,,0.00,0,Wunderground v.1.15,2013-08-28 11:21:00,
2013-08-28 06:26:00,69.0,64.3,29.88,SSW,202,3.0,4.0,85,0.00,,,0.00,0,Wunderground v.1.15,2013-08-28 11:26:00,
2013-08-28 06:31:00,69.3,64.6,29.88,SSE,167,3.0,3.0,85,0.00,,,0.00,0,Wunderground v.1.15,2013-08-28 11:31:00,
2013-08-28 06:37:00,69.5,64.5,29.88,SSE,167,3.0,4.0,84,0.00,,,0.00,0,Wunderground v.1.15,2013-08-28 11:37:00,
2013-08-28 06:42:00,69.2,64.2,29.88,South,182,3.0,3.0,84,0.00,,,0.00,0,Wunderground v.1.15,2013-08-28 11:42:00,
2013-08-28 06:47:00,68.5,64.1,29.88,South,180,2.0,3.0,86,0.00,,,0.00,0,Wunderground v.1.15,2013-08-28 11:47:00,
2013-08-28 06:52:00,68.3,63.9,29.88,South,190,2.0,2.0,86,0.00,,,0.00,7,Wunderground v.1.15,2013-08-28 11:52:00,
2013-08-28 06:57:00,68.0,64.0,29.88,SSW,193,2.0,3.0,87,0.00,,,0.00,9,Wunderground v.1.15,2013-08-28 11:57:00,
2013-08-28 07:02:00,68.0,64.0,29.88,SSW,205,2.0,2.0,87,0.00,,,0.00,12,Wunderground v.1.15,2013-08-28 12:02:00,
2013-08-28 07:07:00,68.1,64.1,29.89,South,186,2.0,3.0,87,0.00,,,0.00,14,Wunderground v.1.15,2013-08-28 12:07:00,
2013-08-28 07:12:00,68.3,64.3,29.89,SSW,194,2.0,2.0,87,0.00,,,0.00,18,Wunderground v.1.15,2013-08-28 12:12:00,
2013-08-28 07:17:00,68.3,64.3,29.89,SSW,194,1.0,2.0,87,0.00,,,0.00,21,Wunderground v.1.15,2013-08-28 12:17:00,
2013-08-28 07:22:00,68.5,64.5,29.89,South,182,1.0,2.0,87,0.00,,,0.00,23,Wunderground v.1.15,2013-08-28 12:22:00,
2013-08-28 07:27:00,68.5,64.5,29.89,SSW,207,1.0,3.0,87,0.00,,,0.00,26,Wunderground v.1.15,2013-08-28 12:27:00,
2013-08-28 07:32:00,68.9,64.9,29.89,SSW,205,2.0,5.0,87,0.00,,,0.00,47,Wunderground v.1.15,2013-08-28 12:32:00,
2013-08-28 07:37:00,69.9,65.2,29.89,South,189,3.0,5.0,85,0.00,,,0.00,46,Wunderground v.1.15,2013-08-28 12:37:00,
2013-08-28 07:42:00,70.4,65.3,29.89,South,172,3.0,5.0,84,0.00,,,0.00,54,Wunderground v.1.15,2013-08-28 12:42:00,
2013-08-28 07:48:00,70.7,65.6,29.89,South,180,3.0,5.0,84,0.00,,,0.00,65,Wunderground v.1.15,2013-08-28 12:48:00,
2013-08-28 07:53:00,71.1,65.7,29.89,SSW,195,3.0,3.0,83,0.00,,,0.00,84,Wunderground v.1.15,2013-08-28 12:53:00,
2013-08-28 07:59:00,71.5,66.1,29.89,South,185,3.0,5.0,83,0.00,,,0.00,105,Wunderground v.1.15,2013-08-28 12:59:00,
2013-08-28 08:05:00,72.1,66.3,29.89,SSW,199,3.0,6.0,82,0.00,,,0.00,128,Wunderground v.1.15,2013-08-28 13:05:00,
2013-08-28 08:11:00,72.7,66.5,29.90,South,182,3.0,6.0,81,0.00,,,0.00,169,Wunderground v.1.15,2013-08-28 13:11:00,
2013-08-28 08:16:00,73.4,67.2,29.90,SW,221,3.0,6.0,81,0.00,,,0.00,192,Wunderground v.1.15,2013-08-28 13:16:00,
2013-08-28 08:22:00,74.4,67.5,29.90,SW,219,5.0,8.0,79,0.00,,,0.00,216,Wunderground v.1.15,2013-08-28 13:22:00,
2013-08-28 08:27:00,75.0,67.7,29.90,SW,230,5.0,8.0,78,0.00,,,0.00,234,Wunderground v.1.15,2013-08-28 13:27:00,
2013-08-28 08:32:00,75.4,68.1,29.90,SW,215,5.0,8.0,78,0.00,,,0.00,251,Wunderground v.1.15,2013-08-28 13:32:00,
2013-08-28 08:37:00,75.9,67.8,29.90,SSW,201,5.0,9.0,76,0.00,,,0.00,264,Wunderground v.1.15,2013-08-28 13:37:00,
2013-08-28 08:42:00,76.4,68.7,29.90,SW,216,6.0,6.0,77,0.00,,,0.00,281,Wunderground v.1.15,2013-08-28 13:42:00,
2013-08-28 08:47:00,76.8,68.7,29.90,South,189,6.0,10.0,76,0.00,,,0.00,297,Wunderground v.1.15,2013-08-28 13:47:00,
2013-08-28 08:53:00,77.2,68.7,29.90,SW,228,6.0,9.0,75,0.00,,,0.00,315,Wunderground v.1.15,2013-08-28 13:53:00,
2013-08-28 08:58:00,77.7,68.7,29.90,SW,222,7.0,10.0,74,0.00,,,0.00,330,Wunderground v.1.15,2013-08-28 13:58:00,
2013-08-28 09:04:00,78.1,68.7,29.89,SW,216,8.0,9.0,73,0.00,,,0.00,348,Wunderground v.1.15,2013-08-28 14:04:00,
2013-08-28 09:09:00,78.4,69.0,29.89,SW,219,8.0,12.0,73,0.00,,,0.00,364,Wunderground v.1.15,2013-08-28 14:09:00,
2013-08-28 09:14:00,78.8,69.4,29.89,SW,236,7.0,10.0,73,0.00,,,0.00,380,Wunderground v.1.15,2013-08-28 14:14:00,
2013-08-28 09:19:00,79.1,69.7,29.90,WSW,243,7.0,10.0,73,0.00,,,0.00,390,Wunderground v.1.15,2013-08-28 14:19:00,
2013-08-28 09:24:00,79.3,69.9,29.90,SW,223,6.0,10.0,73,0.00,,,0.00,410,Wunderground v.1.15,2013-08-28 14:24:00,
2013-08-28 09:29:00,79.5,69.7,29.90,South,179,7.0,10.0,72,0.00,,,0.00,427,Wunderground v.1.15,2013-08-28 14:29:00,
2013-08-28 09:35:00,79.9,70.1,29.90,SSW,201,6.0,7.0,72,0.00,,,0.00,443,Wunderground v.1.15,2013-08-28 14:35:00,
2013-08-28 09:41:00,80.2,70.4,29.90,SW,217,6.0,6.0,72,0.00,,,0.00,461,Wunderground v.1.15,2013-08-28 14:41:00,
2013-08-28 09:47:00,80.6,69.9,29.90,South,188,6.0,8.0,70,0.00,,,0.00,480,Wunderground v.1.15,2013-08-28 14:47:00,
2013-08-28 09:53:00,80.7,70.0,29.90,WSW,240,7.0,10.0,70,0.00,,,0.00,496,Wunderground v.1.15,2013-08-28 14:53:00,
2013-08-28 09:59:00,81.1,70.8,29.91,WSW,242,7.0,10.0,71,0.00,,,0.00,513,Wunderground v.1.15,2013-08-28 14:59:00,
2013-08-28 10:04:00,81.7,70.5,29.91,WSW,252,6.0,7.0,69,0.00,,,0.00,526,Wunderground v.1.15,2013-08-28 15:04:00,
2013-08-28 10:10:00,82.1,70.5,29.91,SW,234,6.0,13.0,68,0.00,,,0.00,541,Wunderground v.1.15,2013-08-28 15:10:00,
2013-08-28 10:16:00,82.0,71.2,29.91,SW,217,9.0,13.0,70,0.00,,,0.00,561,Wunderground v.1.15,2013-08-28 15:16:00,
2013-08-28 10:22:00,82.5,70.9,29.91,SSW,194,8.0,8.0,68,0.00,,,0.00,573,Wunderground v.1.15,2013-08-28 15:22:00,
2013-08-28 10:27:00,82.4,70.3,29.91,South,190,7.0,13.0,67,0.00,,,0.00,587,Wunderground v.1.15,2013-08-28 15:27:00,
2013-08-28 10:32:00,82.8,72.0,29.91,West,259,8.0,10.0,70,0.00,,,0.00,601,Wunderground v.1.15,2013-08-28 15:32:00,
2013-08-28 10:37:00,83.2,70.7,29.91,South,190,7.0,10.0,66,0.00,,,0.00,613,Wunderground v.1.15,2013-08-28 15:37:00,
2013-08-28 10:42:00,83.3,71.2,29.91,WSW,247,7.0,11.0,67,0.00,,,0.00,626,Wunderground v.1.15,2013-08-28 15:42:00,
2013-08-28 10:47:00,83.4,70.8,29.91,SW,236,8.0,11.0,66,0.00,,,0.00,636,Wunderground v.1.15,2013-08-28 15:47:00,
2013-08-28 10:53:00,83.7,71.1,29.91,WSW,239,8.0,9.0,66,0.00,,,0.00,652,Wunderground v.1.15,2013-08-28 15:53:00,
2013-08-28 10:59:00,84.0,71.0,29.91,WSW,238,7.0,11.0,65,0.00,,,0.00,664,Wunderground v.1.15,2013-08-28 15:59:00,
2013-08-28 11:05:00,84.4,72.2,29.91,South,178,7.0,8.0,67,0.00,,,0.00,675,Wunderground v.1.15,2013-08-28 16:05:00,
2013-08-28 11:10:00,84.8,71.3,29.91,SSW,200,6.0,8.0,64,0.00,,,0.00,687,Wunderground v.1.15,2013-08-28 16:10:00,
2013-08-28 11:15:00,85.0,71.9,29.91,WSW,243,5.0,8.0,65,0.00,,,0.00,694,Wunderground v.1.15,2013-08-28 16:15:00,
2013-08-28 11:20:00,85.0,71.5,29.91,SW,217,6.0,6.0,64,0.00,,,0.00,707,Wunderground v.1.15,2013-08-28 16:20:00,
2013-08-28 11:26:00,85.3,70.8,29.91,SW,222,7.0,8.0,62,0.00,,,0.00,719,Wunderground v.1.15,2013-08-28 16:26:00,
2013-08-28 11:32:00,85.6,71.6,29.91,South,181,7.0,9.0,63,0.00,,,0.00,726,Wunderground v.1.15,2013-08-28 16:32:00,
2013-08-28 11:37:00,85.9,72.3,29.91,SSW,208,5.0,10.0,64,0.00,,,0.00,737,Wunderground v.1.15,2013-08-28 16:37:00,
2013-08-28 11:42:00,86.5,72.4,29.91,SSW,207,5.0,8.0,63,0.00,,,0.00,745,Wunderground v.1.15,2013-08-28 16:42:00,
2013-08-28 11:47:00,86.1,71.6,29.91,SSW,194,6.0,8.0,62,0.00,,,0.00,752,Wunderground v.1.15,2013-08-28 16:47:00,
2013-08-28 11:53:00,86.3,71.7,29.91,SW,227,7.0,8.0,62,0.00,,,0.00,761,Wunderground v.1.15,2013-08-28 16:53:00,
2013-08-28 11:59:00,87.0,72.9,29.91,SW,219,6.0,8.0,63,0.00,,,0.00,770,Wunderground v.1.15,2013-08-28 16:59:00,
2013-08-28 12:05:00,87.4,71.8,29.91,SSW,202,5.0,8.0,60,0.00,,,0.00,775,Wunderground v.1.15,2013-08-28 17:05:00,
2013-08-28 12:10:00,87.6,72.5,29.91,WSW,239,5.0,5.0,61,0.00,,,0.00,779,Wunderground v.1.15,2013-08-28 17:10:00,
2013-08-28 12:15:00,88.5,73.8,29.90,SW,217,4.0,10.0,62,0.00,,,0.00,788,Wunderground v.1.15,2013-08-28 17:15:00,
2013-08-28 12:20:00,88.9,73.2,29.91,South,178,5.0,5.0,60,0.00,,,0.00,795,Wunderground v.1.15,2013-08-28 17:20:00,
2013-08-28 12:25:00,89.3,72.6,29.91,SW,225,6.0,9.0,58,0.00,,,0.00,802,Wunderground v.1.15,2013-08-28 17:25:00,
2013-08-28 12:31:00,89.2,72.0,29.90,SW,217,6.0,6.0,57,0.00,,,0.00,814,Wunderground v.1.15,2013-08-28 17:31:00,
2013-08-28 12:37:00,89.7,74.5,29.90,WSW,241,5.0,8.0,61,0.00,,,0.00,812,Wunderground v.1.15,2013-08-28 17:37:00,
2013-08-28 12:42:00,89.6,73.4,29.90,SSW,199,3.0,4.0,59,0.00,,,0.00,812,Wunderground v.1.15,2013-08-28 17:42:00,
2013-08-28 12:47:00,89.9,73.1,29.90,SSW,192,4.0,9.0,58,0.00,,,0.00,821,Wunderground v.1.15,2013-08-28 17:47:00,
2013-08-28 12:52:00,90.0,72.2,29.90,SW,217,6.0,6.0,56,0.00,,,0.00,814,Wunderground v.1.15,2013-08-28 17:52:00,
2013-08-28 12:57:00,90.6,72.8,29.90,SW,223,6.0,7.0,56,0.00,,,0.00,819,Wunderground v.1.15,2013-08-28 17:57:00,
2013-08-28 13:02:00,90.3,71.4,29.90,SSW,202,6.0,6.0,54,0.00,,,0.00,819,Wunderground v.1.15,2013-08-28 18:02:00,
2013-08-28 13:08:00,90.6,73.3,29.90,SE,128,6.0,7.0,57,0.00,,,0.00,824,Wunderground v.1.15,2013-08-28 18:08:00,
2013-08-28 13:13:00,91.4,72.4,29.90,South,181,5.0,10.0,54,0.00,,,0.00,821,Wunderground v.1.15,2013-08-28 18:13:00,
2013-08-28 13:18:00,90.8,71.9,29.90,SSW,200,4.0,10.0,54,0.00,,,0.00,821,Wunderground v.1.15,2013-08-28 18:18:00,
2013-08-28 13:23:00,90.8,72.4,29.90,ESE,116,3.0,7.0,55,0.00,,,0.00,828,Wunderground v.1.15,2013-08-28 18:23:00,
2013-08-28 13:28:00,91.3,72.9,29.90,SSW,199,3.0,7.0,55,0.00,,,0.00,858,Wunderground v.1.15,2013-08-28 18:28:00,
2013-08-28 13:33:00,91.6,70.9,29.90,SSW,213,5.0,8.0,51,0.00,,,0.00,828,Wunderground v.1.15,2013-08-28 18:33:00,
2013-08-28 13:38:00,91.2,69.4,29.90,SSE,163,7.0,13.0,49,0.00,,,0.00,830,Wunderground v.1.15,2013-08-28 18:38:00,
2013-08-28 13:43:00,91.8,68.1,29.90,South,188,7.0,7.0,46,0.00,,,0.00,826,Wunderground v.1.15,2013-08-28 18:43:00,
2013-08-28 13:48:00,92.5,69.3,29.90,SSW,212,7.0,10.0,47,0.00,,,0.00,831,Wunderground v.1.15,2013-08-28 18:48:00,
2013-08-28 13:54:00,92.7,65.6,29.90,South,171,7.0,11.0,41,0.00,,,0.00,828,Wunderground v.1.15,2013-08-28 18:54:00,
2013-08-28 14:00:00,92.4,67.3,29.90,SSW,195,7.0,7.0,44,0.00,,,0.00,824,Wunderground v.1.15,2013-08-28 19:00:00,
2013-08-28 14:06:00,92.9,63.6,29.90,South,185,6.0,7.0,38,0.00,,,0.00,819,Wunderground v.1.15,2013-08-28 19:06:00,
2013-08-28 14:11:00,92.8,64.9,29.90,SSW,206,5.0,6.0,40,0.00,,,0.00,819,Wunderground v.1.15,2013-08-28 19:11:00,
2013-08-28 14:16:00,92.5,66.1,29.90,SE,145,4.0,8.0,42,0.00,,,0.00,814,Wunderground v.1.15,2013-08-28 19:16:00,
2013-08-28 14:21:00,92.8,64.9,29.89,SW,217,5.0,7.0,40,0.00,,,0.00,809,Wunderground v.1.15,2013-08-28 19:21:00,
2013-08-28 14:26:00,92.9,66.4,29.89,SSW,197,6.0,8.0,42,0.00,,,0.00,802,Wunderground v.1.15,2013-08-28 19:26:00,
2013-08-28 14:32:00,93.2,66.7,29.89,South,171,5.0,5.0,42,0.00,,,0.00,798,Wunderground v.1.15,2013-08-28 19:32:00,
2013-08-28 14:37:00,93.6,66.4,29.89,South,186,7.0,17.0,41,0.00,,,0.00,791,Wunderground v.1.15,2013-08-28 19:37:00,
2013-08-28 14:42:00,92.9,66.4,29.89,SSE,159,8.0,10.0,42,0.00,,,0.00,793,Wunderground v.1.15,2013-08-28 19:42:00,
2013-08-28 14:47:00,92.7,66.9,29.89,SSW,205,7.0,10.0,43,0.00,,,0.00,438,Wunderground v.1.15,2013-08-28 19:47:00,
2013-08-28 14:52:00,92.5,65.4,29.89,SE,134,7.0,10.0,41,0.00,,,0.00,816,Wunderground v.1.15,2013-08-28 19:52:00,
2013-08-28 14:58:00,93.0,66.5,29.88,SSW,192,7.0,12.0,42,0.00,,,0.00,795,Wunderground v.1.15,2013-08-28 19:58:00,
2013-08-28 15:04:00,93.3,66.8,29.88,SSW,193,7.0,9.0,42,0.00,,,0.00,800,Wunderground v.1.15,2013-08-28 20:04:00,
2013-08-28 15:09:00,92.6,65.5,29.88,SSW,195,7.0,11.0,41,0.00,,,0.00,670,Wunderground v.1.15,2013-08-28 20:09:00,
2013-08-28 15:14:00,92.5,65.4,29.88,SSE,161,7.0,7.0,41,0.00,,,0.00,738,Wunderground v.1.15,2013-08-28 20:14:00,
2013-08-28 15:19:00,92.8,67.0,29.88,SSE,156,5.0,9.0,43,0.00,,,0.00,761,Wunderground v.1.15,2013-08-28 20:19:00,
2013-08-28 15:24:00,93.2,65.3,29.88,SE,146,4.0,10.0,40,0.00,,,0.00,747,Wunderground v.1.15,2013-08-28 20:24:00,
2013-08-28 15:29:00,93.3,68.8,29.88,South,182,5.0,10.0,45,0.00,,,0.00,594,Wunderground v.1.15,2013-08-28 20:29:00,
2013-08-28 15:34:00,92.9,67.8,29.88,South,174,6.0,10.0,44,0.00,,,0.00,376,Wunderground v.1.15,2013-08-28 20:34:00,
2013-08-28 15:39:00,92.1,66.4,29.88,SSE,156,8.0,10.0,43,0.00,,,0.00,436,Wunderground v.1.15,2013-08-28 20:39:00,
2013-08-28 15:45:00,92.1,67.7,29.88,SSW,202,5.0,7.0,45,0.00,,,0.00,517,Wunderground v.1.15,2013-08-28 20:45:00,
2013-08-28 15:50:00,91.4,68.3,29.88,South,184,4.0,6.0,47,0.00,,,0.00,301,Wunderground v.1.15,2013-08-28 20:50:00,
2013-08-28 15:56:00,91.4,67.7,29.88,South,191,6.0,10.0,46,0.00,,,0.00,568,Wunderground v.1.15,2013-08-28 20:56:00,
2013-08-28 16:01:00,91.8,68.7,29.88,SSW,196,6.0,6.0,47,0.00,,,0.00,782,Wunderground v.1.15,2013-08-28 21:01:00,
2013-08-28 16:07:00,92.8,67.7,29.88,SSW,204,6.0,9.0,44,0.00,,,0.00,758,Wunderground v.1.15,2013-08-28 21:07:00,
2013-08-28 16:12:00,93.2,68.7,29.88,SSE,155,6.0,7.0,45,0.00,,,0.00,710,Wunderground v.1.15,2013-08-28 21:12:00,
2013-08-28 16:17:00,92.9,67.8,29.88,South,182,6.0,10.0,44,0.00,,,0.00,671,Wunderground v.1.15,2013-08-28 21:17:00,
2013-08-28 16:22:00,92.8,67.7,29.88,SW,214,6.0,6.0,44,0.00,,,0.00,675,Wunderground v.1.15,2013-08-28 21:22:00,
2013-08-28 16:27:00,92.3,66.6,29.88,SW,215,7.0,9.0,43,0.00,,,0.00,675,Wunderground v.1.15,2013-08-28 21:27:00,
2013-08-28 16:33:00,92.3,68.5,29.88,SSW,199,6.0,7.0,46,0.00,,,0.00,680,Wunderground v.1.15,2013-08-28 21:33:00,
2013-08-28 16:39:00,91.9,68.8,29.88,WSW,238,3.0,7.0,47,0.00,,,0.00,248,Wunderground v.1.15,2013-08-28 21:39:00,
2013-08-28 16:45:00,91.5,67.8,29.88,South,180,2.0,4.0,46,0.00,,,0.00,176,Wunderground v.1.15,2013-08-28 21:45:00,
2013-08-28 16:51:00,90.3,67.3,29.88,SW,230,3.0,3.0,47,0.00,,,0.00,171,Wunderground v.1.15,2013-08-28 21:51:00,
2013-08-28 16:57:00,89.6,67.3,29.88,SW,224,3.0,4.0,48,0.00,,,0.00,169,Wunderground v.1.15,2013-08-28 21:57:00,
2013-08-28 17:02:00,89.4,67.7,29.88,South,191,3.0,5.0,49,0.00,,,0.00,199,Wunderground v.1.15,2013-08-28 22:02:00,
2013-08-28 17:07:00,89.7,68.6,29.88,SSW,196,3.0,5.0,50,0.00,,,0.00,216,Wunderground v.1.15,2013-08-28 22:07:00,
2013-08-28 17:12:00,90.0,68.9,29.88,South,186,3.0,4.0,50,0.00,,,0.00,188,Wunderground v.1.15,2013-08-28 22:12:00,
2013-08-28 17:17:00,89.9,67.6,29.88,SE,138,3.0,5.0,48,0.00,,,0.00,195,Wunderground v.1.15,2013-08-28 22:17:00,
2013-08-28 17:23:00,89.4,68.9,29.88,South,171,4.0,7.0,51,0.00,,,0.00,225,Wunderground v.1.15,2013-08-28 22:23:00,
2013-08-28 17:29:00,88.8,69.5,29.88,South,171,5.0,7.0,53,0.00,,,0.00,271,Wunderground v.1.15,2013-08-28 22:29:00,
2013-08-28 17:35:00,88.8,70.0,29.88,SW,222,5.0,6.0,54,0.00,,,0.00,308,Wunderground v.1.15,2013-08-28 22:35:00,
2013-08-28 17:41:00,89.4,69.5,29.88,South,182,5.0,6.0,52,0.00,,,0.00,267,Wunderground v.1.15,2013-08-28 22:41:00,
2013-08-28 17:47:00,89.4,69.5,29.88,SSW,196,5.0,7.0,52,0.00,,,0.00,221,Wunderground v.1.15,2013-08-28 22:47:00,
2013-08-28 17:52:00,89.7,70.3,29.88,South,171,5.0,7.0,53,0.00,,,0.00,350,Wunderground v.1.15,2013-08-28 22:52:00,
2013-08-28 17:57:00,90.0,69.4,29.88,SSW,196,5.0,7.0,51,0.00,,,0.00,309,Wunderground v.1.15,2013-08-28 22:57:00,
2013-08-28 18:02:00,89.9,70.5,29.88,SE,146,5.0,7.0,53,0.00,,,0.00,339,Wunderground v.1.15,2013-08-28 23:02:00,
2013-08-28 18:08:00,89.5,69.5,29.88,South,174,5.0,8.0,52,0.00,,,0.00,128,Wunderground v.1.15,2013-08-28 23:08:00,
2013-08-28 18:14:00,88.6,69.3,29.88,South,173,5.0,8.0,53,0.00,,,0.00,113,Wunderground v.1.15,2013-08-28 23:14:00,
2013-08-28 18:20:00,88.3,69.5,29.88,South,177,6.0,6.0,54,0.00,,,0.00,316,Wunderground v.1.15,2013-08-28 23:20:00,
2013-08-28 18:25:00,88.6,69.8,29.88,SSW,192,5.0,8.0,54,0.00,,,0.00,299,Wunderground v.1.15,2013-08-28 23:25:00,
2013-08-28 18:30:00,88.9,69.6,29.88,SSW,196,5.0,5.0,53,0.00,,,0.00,306,Wunderground v.1.15,2013-08-28 23:30:00,
2013-08-28 18:35:00,89.1,69.2,29.88,SSE,168,6.0,9.0,52,0.00,,,0.00,151,Wunderground v.1.15,2013-08-28 23:35:00,
2013-08-28 18:40:00,88.5,69.2,29.88,South,184,6.0,6.0,53,0.00,,,0.00,149,Wunderground v.1.15,2013-08-28 23:40:00,
2013-08-28 18:45:00,87.8,69.6,29.88,South,180,6.0,8.0,55,0.00,,,0.00,130,Wunderground v.1.15,2013-08-28 23:45:00,
2013-08-28 18:51:00,87.2,69.6,29.88,South,186,5.0,5.0,56,0.00,,,0.00,116,Wunderground v.1.15,2013-08-28 23:51:00,
2013-08-28 18:57:00,87.0,69.4,29.88,South,171,5.0,8.0,56,0.00,,,0.00,104,Wunderground v.1.15,2013-08-28 23:57:00,
2013-08-28 19:02:00,86.8,69.7,29.88,South,170,5.0,5.0,57,0.00,,,0.00,90,Wunderground v.1.15,2013-08-29 00:02:00,
2013-08-28 19:07:00,86.8,70.2,29.88,SSE,147,5.0,6.0,58,0.00,,,0.00,74,Wunderground v.1.15,2013-08-29 00:07:00,
2013-08-28 19:12:00,86.5,69.5,29.88,SSE,152,5.0,7.0,57,0.00,,,0.00,65,Wunderground v.1.15,2013-08-29 00:12:00,
2013-08-28 19:17:00,86.2,70.2,29.88,SSE,165,5.0,7.0,59,0.00,,,0.00,62,Wunderground v.1.15,2013-08-29 00:17:00,
2013-08-28 19:22:00,86.0,69.0,29.88,SE,142,5.0,5.0,57,0.00,,,0.00,58,Wunderground v.1.15,2013-08-29 00:22:00,
2013-08-28 19:28:00,85.9,68.9,29.88,South,175,5.0,7.0,57,0.00,,,0.00,56,Wunderground v.1.15,2013-08-29 00:28:00,
2013-08-28 19:33:00,85.6,69.1,29.88,SSE,166,5.0,8.0,58,0.00,,,0.00,49,Wunderground v.1.15,2013-08-29 00:33:00,
2013-08-28 19:38:00,85.4,68.9,29.89,SSW,200,5.0,8.0,58,0.00,,,0.00,39,Wunderground v.1.15,2013-08-29 00:38:00,
2013-08-28 19:44:00,85.3,68.3,29.89,South,184,6.0,9.0,57,0.00,,,0.00,23,Wunderground v.1.15,2013-08-29 00:44:00,
2013-08-28 19:49:00,84.9,68.0,29.89,South,171,5.0,9.0,57,0.00,,,0.00,14,Wunderground v.1.15,2013-08-29 00:49:00,
2013-08-28 19:55:00,84.5,68.1,29.88,SE,136,4.0,5.0,58,0.00,,,0.00,9,Wunderground v.1.15,2013-08-29 00:55:00,
2013-08-28 20:01:00,84.2,67.8,29.89,SE,132,4.0,5.0,58,0.00,,,0.00,5,Wunderground v.1.15,2013-08-29 01:01:00,
2013-08-28 20:06:00,83.9,67.5,29.89,SSE,165,5.0,10.0,58,0.00,,,0.00,0,Wunderground v.1.15,2013-08-29 01:06:00,
2013-08-28 20:11:00,83.7,67.8,29.88,SSE,162,5.0,5.0,59,0.00,,,0.00,7,Wunderground v.1.15,2013-08-29 01:11:00,
2013-08-28 20:17:00,83.5,68.2,29.89,SSE,156,5.0,7.0,60,0.00,,,0.00,0,Wunderground v.1.15,2013-08-29 01:17:00,
2013-08-28 20:22:00,83.0,68.2,29.89,SE,143,5.0,6.0,61,0.00,,,0.00,0,Wunderground v.1.15,2013-08-29 01:22:00,
2013-08-28 20:27:00,82.5,68.2,29.89,South,178,4.0,6.0,62,0.00,,,0.00,0,Wunderground v.1.15,2013-08-29 01:27:00,
2013-08-28 20:32:00,82.2,68.3,29.89,SSE,157,4.0,6.0,63,0.00,,,0.00,0,Wunderground v.1.15,2013-08-29 01:32:00,
2013-08-28 20:38:00,81.8,68.4,29.89,SSE,163,4.0,6.0,64,0.00,,,0.00,0,Wunderground v.1.15,2013-08-29 01:38:00,
2013-08-28 20:44:00,81.4,68.5,29.90,SSE,156,4.0,6.0,65,0.00,,,0.00,0,Wunderground v.1.15,2013-08-29 01:44:00,
2013-08-28 20:49:00,81.0,68.1,29.90,SSE,161,4.0,6.0,65,0.00,,,0.00,0,Wunderground v.1.15,2013-08-29 01:49:00,
2013-08-28 20:54:00,80.6,68.2,29.90,SE,130,4.0,5.0,66,0.00,,,0.00,0,Wunderground v.1.15,2013-08-29 01:54:00,
2013-08-28 20:59:00,80.2,68.2,29.90,SSE,161,3.0,5.0,67,0.00,,,0.00,0,Wunderground v.1.15,2013-08-29 01:59:00,
2013-08-28 21:05:00,80.2,68.2,29.90,South,183,4.0,6.0,67,0.00,,,0.00,0,Wunderground v.1.15,2013-08-29 02:05:00,
2013-08-28 21:10:00,80.1,68.6,29.90,SSE,152,4.0,4.0,68,0.00,,,0.00,0,Wunderground v.1.15,2013-08-29 02:10:00,
2013-08-28 21:15:00,79.6,68.5,29.90,South,170,4.0,6.0,69,0.00,,,0.00,0,Wunderground v.1.15,2013-08-29 02:15:00,
2013-08-28 21:20:00,79.5,68.4,29.90,SSW,192,4.0,4.0,69,0.00,,,0.00,0,Wunderground v.1.15,2013-08-29 02:20:00,
2013-08-28 21:25:00,79.6,68.5,29.90,SE,144,4.0,4.0,69,0.00,,,0.00,0,Wunderground v.1.15,2013-08-29 02:25:00,
2013-08-28 21:31:00,78.9,68.3,29.90,SSE,158,3.0,4.0,70,0.00,,,0.00,0,Wunderground v.1.15,2013-08-29 02:31:00,
2013-08-28 21:37:00,78.6,68.4,29.90,SSE,159,3.0,5.0,71,0.00,,,0.00,0,Wunderground v.1.15,2013-08-29 02:37:00,
2013-08-28 21:42:00,78.3,68.5,29.90,SSE,161,3.0,5.0,72,0.00,,,0.00,0,Wunderground v.1.15,2013-08-29 02:42:00,
2013-08-28 21:47:00,78.4,68.6,29.91,SSE,157,3.0,5.0,72,0.00,,,0.00,0,Wunderground v.1.15,2013-08-29 02:47:00,
2013-08-28 21:52:00,78.6,68.4,29.91,SSE,153,4.0,5.0,71,0.00,,,0.00,0,Wunderground v.1.15,2013-08-29 02:52:00,
2013-08-28 21:57:00,78.6,68.4,29.91,SSE,159,4.0,6.0,71,0.00,,,0.00,0,Wunderground v.1.15,2013-08-29 02:57:00,
2013-08-28 22:02:00,78.6,68.8,29.91,SSE,165,4.0,4.0,72,0.00,,,0.00,0,Wunderground v.1.15,2013-08-29 03:02:00,
2013-08-28 22:08:00,78.2,68.4,29.91,SSE,166,4.0,5.0,72,0.00,,,0.00,0,Wunderground v.1.15,2013-08-29 03:08:00,
2013-08-28 22:14:00,78.0,68.6,29.91,SSE,163,4.0,4.0,73,0.00,,,0.00,0,Wunderground v.1.15,2013-08-29 03:14:00,
2013-08-28 22:19:00,77.8,68.4,29.91,SE,142,4.0,4.0,73,0.00,,,0.00,0,Wunderground v.1.15,2013-08-29 03:19:00,
2013-08-28 22:25:00,77.7,68.4,29.91,SSE,165,3.0,5.0,73,0.00,,,0.00,0,Wunderground v.1.15,2013-08-29 03:25:00,
2013-08-28 22:30:00,77.5,68.6,29.91,SSE,157,3.0,3.0,74,0.00,,,0.00,0,Wunderground v.1.15,2013-08-29 03:30:00,
2013-08-28 22:36:00,76.7,68.6,29.91,SSE,157,2.0,3.0,76,0.00,,,0.00,0,Wunderground v.1.15,2013-08-29 03:36:00,
2013-08-28 22:42:00,76.2,68.5,29.91,South,175,3.0,4.0,77,0.00,,,0.00,0,Wunderground v.1.15,2013-08-29 03:42:00,
2013-08-28 22:47:00,76.0,68.3,29.91,SSE,157,2.0,4.0,77,0.00,,,0.00,0,Wunderground v.1.15,2013-08-29 03:47:00,
2013-08-28 22:52:00,76.0,68.3,29.91,SSE,163,2.0,4.0,77,0.00,,,0.00,0,Wunderground v.1.15,2013-08-29 03:52:00,
2013-08-28 22:57:00,76.0,68.3,29.91,South,178,3.0,4.0,77,0.00,,,0.00,0,Wunderground v.1.15,2013-08-29 03:57:00,
2013-08-28 23:02:00,75.6,68.3,29.91,South,180,2.0,3.0,78,0.00,,,0.00,0,Wunderground v.1.15,2013-08-29 04:02:00,
2013-08-28 23:03:00,75.6,68.3,29.91,SSE,165,2.0,3.0,78,0.00,,,0.00,0,Wunderground v.1.15,2013-08-29 04:03:00,
2013-08-28 23:04:00,75.5,68.2,29.91,SSE,165,2.0,3.0,78,0.00,,,0.00,0,Wunderground v.1.15,2013-08-29 04:04:00,
2013-08-28 23:05:00,75.3,68.0,29.91,South,175,2.0,3.0,78,0.00,,,0.00,0,Wunderground v.1.15,2013-08-29 04:05:00,
2013-08-28 23:07:00,75.3,68.3,29.91,South,183,2.0,4.0,79,0.00,,,0.00,0,Wunderground v.1.15,2013-08-29 04:07:00,
2013-08-28 23:12:00,75.1,68.1,29.91,SSE,167,3.0,4.0,79,0.00,,,0.00,0,Wunderground v.1.15,2013-08-29 04:12:00,
2013-08-28 23:17:00,75.2,68.2,29.91,SSW,196,3.0,4.0,79,0.00,,,0.00,0,Wunderground v.1.15,2013-08-29 04:17:00,
2013-08-28 23:22:00,75.4,68.1,29.91,South,174,3.0,5.0,78,0.00,,,0.00,0,Wunderground v.1.15,2013-08-29 04:22:00,
2013-08-28 23:27:00,75.8,68.1,29.91,South,173,4.0,5.0,77,0.00,,,0.00,0,Wunderground v.1.15,2013-08-29 04:27:00,
2013-08-28 23:32:00,76.0,68.3,29.91,South,185,4.0,4.0,77,0.00,,,0.00,0,Wunderground v.1.15,2013-08-29 04:32:00,
2013-08-28 23:38:00,76.1,68.0,29.91,SSW,207,4.0,6.0,76,0.00,,,0.00,0,Wunderground v.1.15,2013-08-29 04:38:00,
2013-08-28 23:43:00,76.0,68.3,29.91,South,191,4.0,4.0,77,0.00,,,0.00,0,Wunderground v.1.15,2013-08-29 04:43:00,
2013-08-28 23:48:00,75.8,68.1,29.91,SSW,197,4.0,6.0,77,0.00,,,0.00,0,Wunderground v.1.15,2013-08-29 04:48:00,
2013-08-28 23:54:00,75.9,68.2,29.91,SSW,198,4.0,4.0,77,0.00,,,0.00,0,Wunderground v.1.15,2013-08-29 04:54:00,